1501135200.7,23316,18.63,73226.0,11.57,-20.53,-21.77,0,*4D
1501135201.96,23317,18.63,73228.0,11.59,-20.49,-21.87,0,*46
1501135203.2,23318,18.63,73224.8,11.63,-20.43,-21.67,0,*44
1501135204.42,23319,18.63,73224.0,11.63,-19.95,-21.17,0,*43
1501135205.67,23320,18.63,73228.0,11.63,-19.81,-21.03,0,*49
1501135206.87,23321,18.63,73226.0,11.63,-20.73,-22.03,0,*4C
1501135208.1,23322,18.63,73224.8,11.63,-21.23,-22.67,0,*49
1501135209.31,23323,18.63,73224.5,11.65,-20.93,-22.27,0,*40
1501135210.54,23324,18.63,73226.8,11.65,-20.79,-22.03,0,*45
1501135211.82,23325,18.63,73224.0,11.67,-21.03,-22.31,0,*4B
1501135213.08,23326,18.69,73228.0,11.65,-21.33,-22.77,0,*4B
1501135214.3,23327,18.69,73228.8,11.67,-20.05,-21.47,0,*4C
1501135215.53,23328,18.63,73224.5,11.67,-20.09,-21.63,0,*49
1501135216.77,23329,18.63,73224.8,11.65,-19.81,-21.33,0,*45
1501135217.99,23330,18.63,73224.0,11.67,-20.05,-21.47,0,*4A
1501135219.21,23331,18.63,73226.3,11.69,-19.71,-20.93,0,*44
1501135220.44,23332,18.63,73226.5,11.71,-20.05,-21.47,0,*4F
1501135221.67,23333,18.63,73224.5,11.71,-21.13,-22.53,0,*4E
1501135222.93,23334,18.63,73224.5,11.71,-20.15,-21.47,0,*48
1501135224.19,23335,18.63,73224.5,11.73,-20.79,-22.17,0,*47
1501135225.4,23336,18.63,73226.3,11.73,-20.59,-22.03,0,*43
1501135226.66,23337,18.63,73226.3,11.75,-20.83,-22.27,0,*45
1501135227.92,23338,18.63,73224.5,11.75,-20.43,-21.83,0,*4B
1501135229.18,23339,18.63,73226.8,11.75,-20.89,-22.31,0,*46
1501135230.46,23340,18.63,73224.5,11.75,-21.33,-22.73,0,*4E
1501135231.72,23341,18.63,73224.8,11.79,-20.99,-22.27,0,*43
1501135232.98,23342,18.63,73228.0,11.79,-20.99,-22.37,0,*41
1501135234.24,23343,18.63,73228.3,11.79,-21.93,-23.33,0,*4E
1501135235.49,23344,18.63,73226.5,11.75,-21.33,-22.63,0,*4B
1501135236.73,23345,18.63,73226.0,11.75,-20.89,-22.27,0,*4A
1501135238.01,23346,18.63,73224.5,11.75,-20.15,-21.53,0,*4C
1501135239.26,23347,18.63,73224.3,11.79,-20.39,-21.57,0,*4B
1501135240.49,23348,18.63,73224.0,11.79,-20.93,-22.27,0,*40
1501135241.78,23349,18.63,73224.5,11.79,-20.99,-22.21,0,*4D
1501135243.01,23350,18.63,73228.0,11.79,-20.63,-22.03,0,*40
1501135244.27,23351,18.63,73226.8,11.81,-20.49,-21.87,0,*41
1501135245.49,23352,18.63,73224.8,11.81,-20.25,-21.57,0,*45
1501135246.7,23353,18.63,73224.5,11.81,-20.69,-21.93,0,*44
1501135247.89,23354,18.63,73226.5,11.81,-20.05,-21.43,0,*44
1501135249.1,23355,18.63,73224.5,11.85,-19.99,-21.43,0,*4E
1501135250.35,23356,18.63,73226.3,11.85,-20.49,-21.97,0,*43
1501135251.56,23357,18.63,73224.0,11.85,-20.59,-22.07,0,*49
1501135252.79,23358,18.63,73226.5,11.87,-19.99,-21.39,0,*4C
1501135254.02,23359,18.63,73222.8,11.87,-20.73,-22.11,0,*4A
1501135255.27,23360,18.63,73226.0,11.87,-20.25,-21.53,0,*46
1501135256.5,23361,18.63,73224.0,11.89,-20.59,-21.97,0,*4A
1501135257.73,23362,18.63,73228.5,11.89,-20.43,-21.67,0,*4D
1501135258.97,23363,18.63,73228.5,11.91,-20.25,-21.57,0,*46
1501135260.19,23364,18.63,73228.3,11.91,-20.09,-21.43,0,*4A
1501135261.41,23365,18.63,73226.3,11.91,-20.39,-21.63,0,*4A
1501135262.63,23366,18.69,73230.8,11.91,-20.09,-21.43,0,*48
1501135263.86,23367,18.63,73226.8,11.93,-19.91,-21.23,0,*46
1501135265.12,23368,18.63,73226.5,11.97,-20.39,-21.67,0,*45
1501135266.38,23369,18.63,73226.3,11.95,-20.89,-22.21,0,*4C
1501135267.66,23370,18.63,73226.5,11.95,-20.99,-22.31,0,*44
1501135268.89,23371,18.63,73228.0,11.95,-20.73,-22.03,0,*40
1501135270.14,23372,18.63,73228.8,11.95,-20.15,-21.39,0,*49
1501135271.38,23373,18.63,73226.3,11.99,-19.91,-21.27,0,*4D
1501135272.61,23374,18.63,73224.5,11.99,-20.25,-21.67,0,*4B
1501135273.81,23375,18.63,73226.5,11.99,-20.69,-22.07,0,*47
1501135275.01,23376,18.63,73226.5,11.99,-21.43,-22.87,0,*45
1501135276.22,23377,18.63,73224.0,11.99,-21.43,-22.87,0,*44
1501135277.45,23378,18.63,73226.3,11.99,-20.83,-22.11,0,*49
1501135278.68,23379,18.63,73226.5,11.99,-20.83,-22.27,0,*4D
1501135279.91,23380,18.63,73226.5,11.99,-20.99,-22.27,0,*40
1501135281.14,23381,18.63,73226.0,11.99,-20.53,-21.93,0,*4B
1501135282.35,23382,18.63,73224.0,11.99,-20.63,-22.07,0,*45
1501135283.61,23383,18.63,73224.8,12.01,-20.53,-21.93,0,*4B
1501135284.88,23384,18.63,73226.3,12.01,-20.19,-21.57,0,*4A
1501135286.13,23385,18.63,73228.0,12.05,-20.15,-21.39,0,*4B
1501135287.37,23386,18.63,73226.8,12.05,-20.59,-22.03,0,*4A
1501135288.63,23387,18.63,73224.3,12.01,-21.57,-23.09,0,*4B
1501135289.88,23388,18.63,73228.3,12.05,-22.31,-23.79,0,*44
1501135291.08,23389,18.63,73222.5,11.99,-22.27,-23.79,0,*44
1501135292.29,23390,18.63,73226.0,11.99,-21.47,-22.87,0,*49
1501135293.49,23391,18.63,73226.5,11.99,-21.17,-22.53,0,*44
1501135294.75,23392,18.63,73224.5,11.99,-21.27,-22.73,0,*46
1501135295.97,23393,18.63,73224.3,11.99,-22.07,-23.49,0,*4E
1501135297.2,23394,18.63,73228.8,11.99,-22.11,-23.49,0,*4E
1501135298.41,23395,18.63,73228.5,11.99,-20.89,-22.27,0,*45
1501135299.67,23396,18.63,73224.5,11.99,-20.53,-21.83,0,*4C
1501135300.9,23397,18.63,73226.8,11.99,-20.83,-22.11,0,*48
1501135302.15,23398,18.63,73226.3,11.99,-21.33,-22.73,0,*49
1501135303.36,23399,18.63,73224.0,11.99,-21.13,-22.53,0,*48
1501135304.6,23400,18.63,73224.8,12.05,-20.35,-21.73,0,*4D
1501135305.88,23401,18.63,73224.8,12.01,-20.83,-22.21,0,*41
1501135307.14,23402,18.63,73230.8,12.01,-20.99,-22.27,0,*4F
1501135308.4,23403,18.63,73228.5,12.01,-20.63,-21.97,0,*43
1501135309.65,23404,18.63,73224.5,12.01,-20.53,-21.93,0,*43
1501135310.91,23405,18.63,73226.3,12.05,-21.09,-22.47,0,*42
1501135312.16,23406,18.63,73224.8,12.05,-20.73,-22.21,0,*4D
1501135313.41,23407,18.63,73230.8,12.01,-20.25,-21.83,0,*40
1501135314.62,23408,18.63,73224.8,12.07,-19.71,-21.17,0,*4F
1501135315.86,23409,18.63,73226.5,12.07,-19.37,-21.03,0,*49
1501135317.12,23410,18.63,73228.3,12.09,-19.61,-21.17,0,*49
1501135318.34,23411,18.63,73228.8,12.09,-19.37,-21.09,0,*44
1501135319.6,23412,18.63,73224.8,12.13,-19.17,-20.83,0,*4D
1501135320.89,23413,18.63,73230.5,12.13,-19.61,-21.27,0,*42
1501135322.14,23414,18.63,73230.5,12.15,-19.85,-21.57,0,*4E
1501135323.34,23415,18.63,73226.0,12.15,-21.09,-22.67,0,*40
1501135324.57,23416,18.63,73226.5,12.15,-20.83,-22.67,0,*40
1501135325.83,23417,18.63,73230.0,12.15,-20.49,-22.21,0,*45
1501135327.08,23418,18.63,73226.3,12.13,-20.83,-22.67,0,*48
1501135328.28,23419,18.63,73224.8,12.11,-20.25,-22.07,0,*41
1501135329.51,23420,18.63,73226.8,12.13,-21.13,-22.93,0,*40
1501135330.74,23421,18.63,73224.8,12.13,-20.25,-22.11,0,*4F
1501135331.98,23422,18.63,73226.3,12.15,-19.51,-21.23,0,*41
1501135333.22,23423,18.63,73228.5,12.17,-19.51,-21.17,0,*45
1501135334.41,23424,18.63,73226.5,12.15,-19.91,-21.73,0,*4E
1501135335.62,23425,18.63,73228.8,12.19,-19.95,-21.63,0,*46
1501135336.88,23426,18.63,73224.8,12.17,-20.59,-22.31,0,*45
1501135338.1,23427,18.63,73222.5,12.17,-20.29,-22.03,0,*42
1501135339.34,23428,18.63,73224.5,12.17,-21.17,-22.93,0,*48
1501135340.56,23429,18.63,73226.5,12.17,-21.09,-22.83,0,*47
1501135341.79,23430,18.63,73226.8,12.17,-20.59,-22.27,0,*45
1501135342.99,23431,18.63,73226.8,12.19,-20.69,-22.41,0,*49
1501135344.22,23432,18.63,73226.5,12.19,-20.49,-22.11,0,*4D
1501135345.48,23433,18.63,73224.5,12.19,-20.53,-22.21,0,*44
1501135346.69,23434,18.63,73226.8,12.19,-20.89,-22.57,0,*45
1501135347.92,23435,18.63,73224.0,12.19,-21.03,-22.63,0,*40
1501135349.17,23436,18.63,73228.8,12.19,-20.53,-22.21,0,*41
1501135350.41,23437,18.63,73228.0,12.19,-21.27,-23.09,0,*49
1501135351.62,23438,18.63,73226.5,12.19,-20.69,-22.27,0,*40
1501135352.87,23439,18.63,73228.0,12.19,-21.03,-22.73,0,*4D
1501135354.12,23440,18.63,73226.0,12.17,-21.47,-23.29,0,*43
1501135355.35,23441,18.63,73224.0,12.17,-21.17,-22.93,0,*47
1501135356.6,23442,18.63,73228.0,12.17,-21.09,-22.77,0,*41
1501135357.83,23443,18.63,73226.5,12.17,-21.09,-22.83,0,*4B
1501135359.06,23444,18.63,73228.5,12.15,-20.99,-22.83,0,*46
1501135360.27,23445,18.63,73224.5,12.15,-20.93,-22.67,0,*47
1501135361.53,23446,18.63,73228.8,12.17,-20.43,-22.17,0,*4C
1501135362.76,23447,18.63,73226.8,12.15,-20.83,-22.63,0,*40
1501135364.0,23448,18.63,73228.0,12.15,-20.43,-22.17,0,*40
1501135365.24,23449,18.63,73226.5,12.17,-20.29,-21.97,0,*44
1501135366.51,23450,18.63,73230.0,12.17,-19.85,-21.57,0,*4C
1501135367.75,23451,18.63,73228.3,12.19,-19.51,-21.33,0,*48
1501135368.98,23452,18.63,73224.5,12.19,-19.75,-21.53,0,*4B
1501135370.23,23453,18.63,73228.3,12.21,-19.75,-21.53,0,*41
1501135371.47,23454,18.63,73228.3,12.21,-19.13,-20.73,0,*45
1501135372.7,23455,18.63,73228.0,12.21,-19.17,-20.69,0,*4B
1501135373.92,23456,18.63,73230.3,12.27,-19.03,-20.43,0,*43
1501135375.15,23457,18.63,73230.5,12.27,-19.17,-20.79,0,*4E
1501135376.39,23458,18.63,73226.8,12.31,-18.99,-20.53,0,*49
1501135377.59,23459,18.63,73228.8,12.31,-18.41,-19.91,0,*49
1501135378.82,23460,18.63,73224.8,12.31,-18.25,-19.65,0,*4A
1501135380.05,23461,18.63,73226.5,12.37,-18.17,-19.71,0,*49
1501135381.26,23462,18.63,73228.0,12.35,-18.49,-19.91,0,*4D
1501135382.49,23463,18.63,73230.0,12.37,-18.65,-20.09,0,*4B
1501135383.75,23464,18.63,73230.0,12.41,-18.83,-20.19,0,*44
1501135385.03,23465,18.63,73228.8,12.41,-18.89,-20.19,0,*4F
1501135386.26,23466,18.63,73226.5,12.43,-19.07,-20.53,0,*47
1501135387.5,23467,18.63,73228.5,12.45,-19.71,-21.13,0,*44
1501135388.75,23468,18.63,73228.3,12.45,-20.35,-21.93,0,*49
1501135389.98,23469,18.63,73230.5,12.49,-19.95,-21.43,0,*49
1501135391.21,23470,18.63,73230.0,12.45,-21.09,-22.53,0,*41
1501135392.47,23471,18.63,73226.5,12.45,-21.27,-22.83,0,*41
1501135393.73,23472,18.63,73230.0,12.45,-21.13,-22.73,0,*4A
1501135394.95,23473,18.63,73228.5,12.43,-21.17,-22.73,0,*49
1501135396.15,23474,18.63,73228.3,12.43,-20.25,-21.93,0,*43
1501135397.38,23475,18.63,73224.3,12.43,-19.85,-21.47,0,*4B
1501135398.62,23476,18.63,73230.5,12.43,-19.31,-20.93,0,*4F
1501135399.85,23477,18.63,73230.3,12.43,-18.99,-20.49,0,*4A
1501135401.13,23478,18.63,73230.0,12.49,-18.89,-20.35,0,*45
1501135402.39,23479,18.63,73230.0,12.49,-18.79,-20.35,0,*4B
1501135403.64,23480,18.63,73228.0,12.53,-18.55,-19.95,0,*48
1501135404.9,23481,18.63,73228.3,12.53,-18.59,-20.25,0,*44
1501135406.15,23482,18.63,73230.0,12.53,-19.07,-20.83,0,*41
1501135407.41,23483,18.63,73226.8,12.57,-20.19,-21.93,0,*41
1501135408.64,23484,18.63,73228.3,12.59,-19.23,-20.93,0,*4A
1501135409.9,23485,18.63,73228.3,12.57,-20.53,-22.27,0,*45
1501135411.18,23486,18.63,73230.0,12.57,-19.61,-21.33,0,*4B
1501135412.42,23487,18.63,73232.0,12.57,-19.03,-20.93,0,*45
1501135413.67,23488,18.63,73230.0,12.59,-19.41,-21.27,0,*4C
1501135414.91,23489,18.63,73230.3,12.59,-19.37,-21.27,0,*4C
1501135416.14,23490,18.63,73228.8,12.61,-19.99,-21.97,0,*40
1501135417.38,23491,18.63,73230.0,12.61,-18.83,-20.83,0,*4F
1501135418.65,23492,18.63,73228.0,12.63,-19.17,-21.23,0,*49
1501135419.91,23493,18.63,73230.8,12.63,-19.17,-21.03,0,*4A
1501135421.2,23494,18.63,73226.0,12.63,-19.31,-21.23,0,*4B
1501135422.47,23495,18.63,73230.3,12.63,-19.37,-21.23,0,*4C
1501135423.72,23496,18.63,73230.8,12.65,-19.27,-21.17,0,*4F
1501135425.01,23497,18.63,73230.5,12.63,-19.65,-21.67,0,*49
1501135426.25,23498,18.63,73230.0,12.65,-19.41,-21.17,0,*41
1501135427.48,23499,18.63,73228.0,12.65,-19.61,-21.63,0,*41
1501135428.71,23500,18.63,73228.3,12.65,-19.03,-20.89,0,*41
1501135429.94,23501,18.63,73228.8,12.67,-19.13,-21.09,0,*4A
1501135431.15,23502,18.63,73228.3,12.69,-18.83,-20.93,0,*4D
1501135432.36,23503,18.63,73230.3,12.69,-18.73,-20.59,0,*45
1501135433.57,23504,18.63,73228.5,12.69,-18.65,-20.63,0,*4C
1501135434.79,23505,18.63,73230.3,12.73,-19.37,-21.39,0,*4E
1501135436.02,23506,18.63,73228.5,12.73,-19.51,-21.67,0,*46
1501135437.23,23507,18.63,73230.8,12.73,-19.47,-21.73,0,*45
1501135438.46,23508,18.63,73230.3,12.73,-19.23,-21.39,0,*46
1501135439.72,23509,18.63,73228.8,12.75,-19.31,-21.47,0,*4B
1501135440.98,23510,18.63,73230.3,12.75,-19.61,-21.93,0,*4F
1501135442.19,23511,18.63,73230.8,12.77,-19.37,-21.63,0,*40
1501135443.42,23512,18.63,73228.3,12.77,-19.71,-21.97,0,*4A
1501135444.67,23513,18.63,73230.8,12.75,-19.47,-21.83,0,*49
1501135445.93,23514,18.63,73228.5,12.75,-18.83,-21.03,0,*4F
1501135447.18,23515,18.63,73228.3,12.79,-18.93,-21.13,0,*42
1501135448.44,23516,18.63,73228.5,12.79,-18.07,-20.49,0,*42
1501135449.68,23517,18.63,73232.5,12.77,-18.21,-20.49,0,*49
1501135450.96,23518,18.63,73230.8,12.79,-18.59,-20.83,0,*41
1501135452.19,23519,18.63,73230.5,12.81,-19.13,-21.53,0,*44
1501135453.45,23520,18.63,73230.5,12.83,-19.07,-21.53,0,*49
1501135454.68,23521,18.63,73230.3,12.81,-18.65,-20.99,0,*48
1501135455.92,23522,18.63,73230.0,12.83,-18.65,-20.89,0,*48
1501135457.18,23523,18.63,73228.5,12.83,-17.97,-20.39,0,*40
1501135458.39,23524,18.63,73230.8,12.85,-18.73,-21.17,0,*49
1501135459.61,23525,18.63,73230.3,12.85,-19.31,-21.63,0,*4C
1501135460.87,23526,18.63,73228.5,12.85,-19.31,-21.57,0,*48
1501135462.09,23527,18.63,73228.5,12.85,-19.23,-21.63,0,*4D
1501135463.36,23528,18.63,73228.3,12.85,-19.27,-21.67,0,*42
1501135464.59,23529,18.63,73226.8,12.87,-19.51,-21.93,0,*4B
1501135465.85,23530,18.63,73232.8,12.87,-18.99,-21.27,0,*49
1501135467.12,23531,18.63,73230.8,12.87,-19.23,-21.57,0,*4F
1501135468.35,23532,18.63,73228.3,12.87,-18.79,-20.93,0,*4B
1501135469.59,23533,18.63,73228.5,12.89,-18.99,-21.27,0,*44
1501135470.82,23534,18.63,73226.8,12.89,-19.37,-21.57,0,*41
1501135472.04,23535,18.63,73228.0,12.89,-19.71,-21.77,0,*40
1501135473.26,23536,18.63,73232.5,12.89,-20.35,-22.57,0,*48
1501135474.49,23537,18.63,73230.8,12.89,-21.09,-23.19,0,*4C
1501135475.77,23538,18.63,73228.3,12.87,-20.99,-23.19,0,*45
1501135477.03,23539,18.63,73234.0,12.85,-20.99,-23.23,0,*4F
1501135478.25,23540,18.63,73230.3,12.85,-21.67,-23.89,0,*41
1501135479.48,23541,18.63,73228.8,12.83,-22.11,-24.51,0,*46
1501135480.68,23542,18.63,73228.3,12.81,-22.03,-24.47,0,*43
1501135481.93,23543,18.63,73232.0,12.79,-22.53,-24.83,0,*48
1501135483.14,23544,18.63,73226.8,12.77,-22.11,-24.61,0,*4B
1501135484.36,23545,18.63,73228.5,12.75,-22.07,-24.47,0,*4B
1501135485.61,23546,18.63,73230.8,12.75,-21.63,-24.21,0,*49
1501135486.87,23547,18.63,73230.3,12.73,-21.23,-23.69,0,*41
1501135488.07,23548,18.63,73228.0,12.69,-20.93,-23.43,0,*47
1501135489.3,23549,18.63,73230.8,12.69,-21.39,-23.85,0,*4D
1501135490.56,23550,18.63,73228.5,12.69,-21.27,-23.85,0,*4A
1501135491.76,23551,18.63,73228.3,12.69,-21.09,-23.59,0,*46
1501135493.04,23552,18.63,73230.0,12.67,-20.49,-23.03,0,*41
1501135494.3,23553,18.63,73232.0,12.67,-19.85,-22.37,0,*4C
1501135495.53,23554,18.63,73228.0,12.67,-19.51,-21.93,0,*4F
1501135496.82,23555,18.63,73228.0,12.67,-19.85,-22.31,0,*4C
1501135498.08,23556,18.63,73230.8,12.69,-19.65,-22.17,0,*4B
1501135499.34,23557,18.63,73234.3,12.69,-19.27,-21.83,0,*42
1501135500.55,23558,18.63,73230.8,12.69,-18.99,-21.39,0,*48
1501135501.82,23559,18.63,73228.5,12.73,-18.93,-21.23,0,*43
1501135503.02,23560,18.63,73232.0,12.73,-18.79,-21.09,0,*45
1501135504.26,23561,18.63,73230.3,12.73,-18.69,-21.03,0,*4F
1501135505.52,23562,18.63,73228.8,12.75,-18.55,-20.89,0,*46
1501135506.78,23563,18.63,73228.0,12.77,-17.97,-20.19,0,*4D
1501135507.99,23564,18.63,73228.3,12.81,-17.69,-20.05,0,*4F
1501135509.23,23565,18.63,73232.0,12.83,-17.73,-20.15,0,*46
1501135510.47,23566,18.63,73230.5,12.83,-18.17,-20.59,0,*40
1501135511.7,23567,18.63,73228.8,12.85,-17.97,-20.25,0,*4B
1501135512.95,23568,18.63,73232.0,12.87,-17.59,-19.91,0,*41
1501135514.18,23569,18.63,73232.8,12.89,-17.87,-20.15,0,*4B
1501135515.41,23570,18.63,73230.8,12.91,-17.87,-20.09,0,*47
1501135516.67,23571,18.63,73228.0,12.91,-18.01,-20.25,0,*49
1501135517.88,23572,18.63,73232.5,12.95,-17.83,-19.95,0,*4A
1501135519.16,23573,18.63,73232.0,12.97,-18.59,-20.83,0,*4C
1501135520.43,23574,18.63,73228.0,12.99,-19.27,-21.57,0,*45
1501135521.68,23575,18.63,73234.5,12.99,-19.13,-21.27,0,*44
1501135522.94,23576,18.63,73232.3,12.99,-18.31,-20.35,0,*44
1501135524.18,23577,18.63,73228.8,13.01,-18.21,-20.29,0,*49
1501135525.4,23578,18.63,73228.3,13.03,-18.79,-20.89,0,*43
1501135526.66,23579,18.63,73230.3,13.03,-18.31,-20.35,0,*49
1501135527.92,23580,18.63,73228.8,13.05,-17.97,-20.05,0,*49
1501135529.15,23581,18.63,73230.3,13.05,-17.49,-19.51,0,*40
1501135530.39,23582,18.63,73230.5,13.07,-17.69,-19.65,0,*44
1501135531.61,23583,18.63,73228.5,13.11,-17.55,-19.51,0,*4A
1501135532.84,23584,18.63,73228.8,13.11,-18.11,-20.15,0,*48
1501135534.07,23585,18.63,73232.5,13.13,-17.87,-19.95,0,*49
1501135535.3,23586,18.63,73230.5,13.17,-18.11,-20.25,0,*4F
1501135536.55,23587,18.63,73230.3,13.17,-17.79,-19.75,0,*40
1501135537.81,23588,18.63,73232.8,13.19,-17.59,-19.57,0,*43
1501135539.06,23589,18.63,73228.0,13.19,-17.45,-19.41,0,*48
1501135540.32,23590,18.63,73228.8,13.23,-17.55,-19.57,0,*4F
1501135541.55,23591,18.63,73228.8,13.25,-18.35,-20.29,0,*42
1501135542.78,23592,18.63,73228.8,13.25,-17.83,-19.81,0,*4B
1501135544.03,23593,18.63,73232.3,13.27,-17.21,-19.03,0,*4A
1501135545.28,23594,18.63,73230.5,13.27,-18.01,-19.99,0,*43
1501135546.5,23595,18.63,73232.0,13.33,-18.17,-20.15,0,*4E
1501135547.76,23596,18.63,73232.3,13.31,-18.01,-19.91,0,*4E
1501135549.05,23597,18.63,73234.0,13.31,-17.59,-19.57,0,*47
1501135550.28,23598,18.63,73230.8,13.33,-17.73,-19.65,0,*43
1501135551.5,23599,18.63,73232.8,13.35,-18.17,-19.99,0,*4A
1501135552.72,23600,18.63,73232.3,13.35,-18.17,-19.99,0,*49
1501135553.95,23601,18.63,73232.8,13.37,-18.41,-20.15,0,*47
1501135555.16,23602,18.63,73228.8,13.37,-18.45,-20.25,0,*43
1501135556.38,23603,18.63,73232.8,13.37,-18.45,-20.15,0,*41
1501135557.61,23604,18.63,73232.0,13.41,-18.55,-20.25,0,*45
1501135558.87,23605,18.63,73230.3,13.43,-18.79,-20.49,0,*42
1501135560.11,23606,18.63,73232.0,13.43,-18.73,-20.43,0,*41
1501135561.38,23607,18.63,73230.8,13.43,-18.35,-19.85,0,*42
1501135562.58,23608,18.63,73232.0,13.45,-18.17,-19.71,0,*40
1501135563.79,23609,18.63,73232.5,13.45,-18.83,-20.73,0,*44
1501135565.03,23610,18.63,73228.8,13.47,-18.69,-20.39,0,*44
1501135566.25,23611,18.63,73232.5,13.49,-18.73,-20.35,0,*4C
1501135567.48,23612,18.63,73232.0,13.49,-18.65,-20.19,0,*46
1501135568.72,23613,18.63,73230.5,13.49,-18.69,-20.19,0,*4B
1501135569.94,23614,18.63,73230.5,13.49,-18.73,-20.35,0,*49
1501135571.15,23615,18.63,73232.5,13.53,-18.49,-20.05,0,*49
1501135572.35,23616,18.63,73232.8,13.53,-18.83,-20.29,0,*42
1501135573.56,23617,18.63,73232.3,13.53,-18.65,-20.05,0,*45
1501135574.78,23618,18.63,73234.3,13.53,-20.05,-21.57,0,*41
1501135576.01,23619,18.63,73234.0,13.53,-18.99,-20.35,0,*4B
1501135577.22,23620,18.63,73228.8,13.53,-18.65,-20.09,0,*4D
1501135578.46,23621,18.63,73234.0,13.53,-19.07,-20.49,0,*4D
1501135579.72,23622,18.63,73234.0,13.57,-19.31,-20.73,0,*46
1501135580.98,23623,18.63,73230.8,13.55,-19.23,-20.63,0,*47
1501135582.22,23624,18.63,73230.5,13.57,-18.73,-20.09,0,*4A
1501135583.47,23625,18.63,73230.8,13.57,-18.89,-20.29,0,*4C
1501135584.73,23626,18.63,73232.5,13.57,-18.25,-19.65,0,*4B
1501135585.96,23627,18.56,73230.3,13.63,-18.55,-19.99,0,*49
1501135587.17,23628,18.63,73232.8,13.63,-18.65,-20.05,0,*4A
1501135588.38,23629,18.63,73232.0,13.63,-18.83,-20.29,0,*4D
1501135589.63,23630,18.56,73230.3,13.65,-18.45,-19.85,0,*45
1501135590.9,23631,18.63,73232.3,13.65,-19.37,-20.83,0,*4C
1501135592.12,23632,18.63,73232.8,13.67,-19.37,-20.89,0,*47
1501135593.33,23633,18.63,73234.3,13.67,-19.71,-21.09,0,*4D
1501135594.59,23634,18.63,73232.0,13.69,-19.47,-20.83,0,*42
1501135595.82,23635,18.63,73234.0,13.67,-19.81,-21.17,0,*4B
1501135597.06,23636,18.63,73230.3,13.67,-19.31,-20.63,0,*41
1501135598.3,23637,18.63,73232.3,13.67,-18.93,-20.25,0,*4B
1501135599.56,23638,18.63,73232.3,13.69,-18.25,-19.61,0,*4D
1501135600.8,23639,18.63,73234.3,13.73,-18.49,-19.75,0,*48
1501135602.06,23640,18.63,73234.0,13.73,-18.65,-19.85,0,*47
1501135603.33,23641,18.63,73232.0,13.75,-18.31,-19.57,0,*4E
1501135604.54,23642,18.63,73232.3,13.75,-18.17,-19.37,0,*4F
1501135605.75,23643,18.63,73232.8,13.75,-18.11,-19.37,0,*48
1501135607.0,23644,18.63,73230.0,13.77,-18.11,-19.41,0,*4C
1501135608.21,23645,18.63,73232.3,13.79,-17.83,-19.13,0,*40
1501135609.41,23646,18.63,73230.5,13.79,-18.25,-19.51,0,*46
1501135610.67,23647,18.63,73234.5,13.85,-18.55,-19.91,0,*4F
1501135611.9,23648,18.63,73234.0,13.85,-18.25,-19.47,0,*4C
1501135613.15,23649,18.63,73234.0,13.85,-18.65,-19.85,0,*47
1501135614.36,23650,18.63,73232.0,13.87,-18.73,-19.95,0,*4B
1501135615.59,23651,18.63,73234.0,13.87,-18.89,-20.09,0,*40
1501135616.79,23652,18.63,73232.5,13.89,-18.25,-19.51,0,*4C
1501135618.02,23653,18.63,73234.5,13.91,-18.17,-19.37,0,*45
1501135619.28,23654,18.63,73234.5,13.91,-17.97,-19.17,0,*47
1501135620.52,23655,18.63,73232.8,13.91,-18.07,-19.17,0,*40
1501135621.77,23656,18.63,73234.3,13.93,-18.01,-19.27,0,*44
1501135623.0,23657,18.63,73232.5,13.95,-17.87,-19.07,0,*40
1501135624.22,23658,18.63,73232.8,13.97,-18.45,-19.81,0,*42
1501135625.48,23659,18.63,73234.0,13.95,-18.89,-19.99,0,*48
1501135626.72,23660,18.63,73232.5,13.97,-19.27,-20.59,0,*43
1501135627.96,23661,18.63,73232.5,13.97,-19.37,-20.49,0,*42
1501135629.2,23662,18.63,73234.0,13.97,-18.99,-20.19,0,*41
1501135630.43,23663,18.63,73234.0,13.99,-18.73,-19.95,0,*44
1501135631.72,23664,18.63,73232.3,13.99,-18.31,-19.61,0,*4E
1501135632.99,23665,18.63,73232.0,13.99,-17.79,-18.89,0,*4B
1501135634.21,23666,18.63,73232.5,14.01,-18.11,-19.31,0,*4D
1501135635.42,23667,18.63,73232.3,14.01,-18.69,-20.09,0,*42
1501135636.65,23668,18.63,73234.8,14.03,-19.95,-21.47,0,*46
1501135637.85,23669,18.63,73234.3,14.01,-19.75,-21.39,0,*42
1501135639.06,23670,18.63,73234.3,14.01,-19.37,-21.09,0,*4F
1501135640.29,23671,18.63,73234.0,14.01,-19.99,-21.83,0,*48
1501135641.49,23672,18.63,73234.0,14.01,-19.91,-22.11,0,*4B
1501135642.73,23673,18.56,73228.3,14.01,-19.31,-21.47,0,*40
1501135643.98,23674,18.63,73234.0,13.99,-18.45,-21.03,0,*43
1501135645.24,23675,18.63,73232.0,13.99,-18.41,-21.53,0,*43
1501135646.5,23676,18.63,73232.8,13.97,-18.35,-22.31,0,*4A
1501135647.73,23677,18.63,73230.5,13.93,-17.45,-21.47,0,*45
1501135648.97,23678,18.63,73234.0,13.93,-16.31,-20.39,0,*40
1501135650.23,23679,18.63,73232.8,13.93,-15.81,-20.19,0,*4B
1501135651.46,23680,18.63,73234.8,13.93,-15.57,-20.25,0,*49
1501135652.67,23681,18.63,73238.5,13.93,-15.49,-19.91,0,*42
1501135653.89,23682,18.56,73230.5,13.93,-15.21,-19.99,0,*47
1501135655.12,23683,18.63,73232.3,13.89,-14.33,-19.31,0,*4D
1501135656.38,23684,18.63,73234.5,13.87,-14.01,-18.93,0,*4C
1501135657.63,23685,18.63,73234.8,13.87,-14.75,-19.41,0,*40
1501135658.83,23686,18.63,73232.8,13.87,-14.65,-19.51,0,*43
1501135660.05,23687,18.63,73232.5,13.87,-14.61,-19.81,0,*4B
1501135661.28,23688,18.63,73228.8,13.87,-15.53,-21.03,0,*45
1501135662.56,23689,18.63,73234.8,13.85,-15.57,-20.99,0,*40
1501135663.82,23690,18.63,73232.8,13.85,-15.11,-20.19,0,*42
1501135665.07,23691,18.63,73232.5,13.81,-15.57,-20.73,0,*49
1501135666.3,23692,18.63,73234.3,13.81,-14.89,-20.09,0,*45
1501135667.55,23693,18.63,73232.8,13.81,-14.75,-19.91,0,*4C
1501135668.79,23694,18.63,73234.3,13.85,-15.95,-21.17,0,*45
1501135670.02,23695,18.63,73232.3,13.85,-15.53,-20.69,0,*46
1501135671.26,23696,18.63,73234.5,13.81,-15.75,-20.73,0,*4E
1501135672.51,23697,18.63,73236.3,13.81,-15.39,-20.29,0,*48
1501135673.74,23698,18.63,73236.0,13.81,-15.15,-19.91,0,*40
1501135674.99,23699,18.63,73238.3,13.85,-15.99,-20.79,0,*4D
1501135676.25,23700,18.63,73232.5,13.81,-16.75,-21.23,0,*47
1501135677.54,23701,18.63,73232.3,13.85,-15.81,-20.19,0,*42
1501135678.76,23702,18.56,73230.3,13.87,-16.03,-20.19,0,*4A
1501135679.99,23703,18.63,73232.5,13.87,-15.89,-19.99,0,*48
1501135681.23,23704,18.63,73232.5,13.87,-16.09,-20.09,0,*47
1501135682.47,23705,18.63,73234.3,13.87,-16.27,-20.15,0,*47
1501135683.74,23706,18.63,73234.8,13.89,-17.97,-21.83,0,*4E
1501135684.97,23707,18.63,73234.3,13.89,-18.21,-21.97,0,*48
1501135686.2,23708,18.63,73236.5,13.89,-18.55,-22.27,0,*4C
1501135687.43,23709,18.63,73234.0,13.87,-18.93,-22.37,0,*48
1501135688.63,23710,18.63,73234.3,13.87,-18.65,-22.03,0,*4E
1501135689.86,23711,18.63,73234.8,13.87,-17.97,-21.09,0,*44
1501135691.07,23712,18.63,73232.8,13.87,-17.83,-20.89,0,*4B
1501135692.32,23713,18.63,73234.5,13.87,-17.25,-20.15,0,*43
1501135693.58,23714,18.63,73236.5,13.87,-17.55,-20.49,0,*4A
1501135694.79,23715,18.63,73234.8,13.89,-17.49,-20.29,0,*4E